NOAA 16 DEB

Satellite information

Favourite Embed

Satellite Type and Status

DEBRISIN ORBIT

Key statistics

Satellite NOAA 16 DEB at a glance.

Uptime

9056

Days in orbit

Revolutions

≈ 14.7

Per day

Orbit

SSO

Sun Synchronous Orbit

Inclination

99.0

Latest

Satellite identification and parameters

Extended collection of information and parameters for NOAA 16 DEB.

Object identification

Identified? True

Debris? True

Object name: NOAA 16 DEB

International designator: 2000-055CP

Object number (NORAD): 41156

Object ID (CCSDS): 41156

Country: UNITED STATES OF AMERICA (US)

Current information (Y/N): Y

RCS size: SMALL

Orbital parameters

Period: 98.19 minutes

Inclination: 98.957 deg

SMA: 7050.25 km

Apoapsis: 695.841 km

Periapsis: 648.39 km

RAAN: 54.3975 deg

Eccentricy: 0.0033652

Argument of periapsis: 315.2217 deg

Mean anomaly: 44.6268 deg

Mean motion: 14.66546899 rev/day

Mean motion (dot): 0.00010335 rev/day2

B* drag term: 0.0018556 1/REarth

Two-line elements (TLE)

Creation date: July 6, 2025, 6:05 p.m.

Reference frame: TEME

Reference center: EARTH

Epoch: July 6, 2025, 2:19 a.m. UTC

TLE line 0: 0 NOAA 16 DEB

TLE line 1: 1 41156U 00055CP 25187.09696820 .00010335 00000-0 18556-2 0 9999

TLE line 2: 2 41156 98.9570 54.3975 0033652 315.2217 44.6268 14.66546899501756

Live tracking on map

Real-time ground track for satellite NOAA 16 DEB.

In-orbit conjunctions

A list of the most updated potential collisions computed for object NOAA 16 DEB.

Target Orbit TCA Probability of collision Miss distance Type
COSMOS 220 LEO 2025-05-18 18:54:38 0.0001385433 983.0 (m) PAYLOAD
FENGYUN 1C DEB SSO 2024-07-02 08:28:59 0.0001311756 154.0 (m) DEBRIS

Associated space launch

The NOAA K, L and M POES satellites begin the fifth generation of improved environmental monitoring in support of NOAA missions. The instrument payload has significant improvements and additions/deletions. The instrument changes have effected the spacecraft subsystems and data formats.

NOAA 16 DEB was lifted into orbit during the mission ‘Titan II SLV | NOAA 16’, on board a Titan II SLV space rocket.

The launch took place on Sept. 21, 2000, 10:22 a.m. from Space Launch Complex 4W.

For more information about the launch, click the button.

Launch to space Titan II SLV | NOAA 16
Titan II SLV | NOAA 16

Agency: N/A

Status: Launch Successful

Launch date: Sept. 21, 2000, 10:22 a.m. UTC

Rocket: Titan II SLV

Launch pad: Space Launch Complex 4W

Location: Vandenberg SFB, CA, USA

...

Latest news about this satellite

There are no fresh news available about this satellite. Check back as we update our databases every day.


Newsletter sign-up

Weekly statistics, charts and insights to help you stay on top of the space industry.